Content
SEND FEEDBACK

Daily
Averages
Monthly
Summary
United States of America

CAMAK, GEORGIA


Home > North America > United States > Georgia
Elevation: 525 feet     Latitude: 33 25N     Longitude: 082 39W

WEATHER
 
SELECT A DAY
Number of Records: 260,786;   Date Range: 6/20/03 - 12/17/14
 
SHARE

PRINT THIS DATA

[ ← Previous Day ]
WEATHER ALMANAC - JANUARY 31, 2013
[ Next Day → ]
[ °C ]   °F
Weather ElementAverageHighLow
Temperature42.9 °F51.4 °F (2:55 pm)35.1 °F (11:35 pm)
Dewpoint30.9 °F48.4 °F (12:35 am)25.3 °F (3:35 pm)
Humidity64.4 %96 % (12:35 am)38 % (3:15 pm)
Barometer30.07 in30.22 in (10:55 pm)29.79 in (12:35 am)
Wind Speed10.5 mph21.9 mph (4:35 am)
Wind Gust38 mph (4:35 am)
Weather ElementAverage
Visibility10 mi
Wind DirectionWSW (256.1 °)

Weather ElementTotal
Precipitation---
Heating Degree Days21.8 (Base 65)
Averaged from 70 records on January 31, 2013
WEATHER CONDITIONS BREAKOUT
WIND DIRECTION BREAKOUT
WEATHER BY HOUR - JANUARY 31, 2013
[ °C ]   °F
Local TimeTemperatureDewpointHumidityBarometerVisibilityWind DirectionWind SpeedGust SpeedPrecipitationEventsConditions
12:35 AM49.5 °F48.4 °F96 %29.79 in10.0 miWSW (240°)8.1 mph18.4 mphOvercast
12:55 AM49.6 °F47.8 °F94 %29.80 in7.0 miWest (260°)10.4 mph17.3 mphOvercast
1:15 AM48.0 °F44.8 °F89 %29.83 in10.0 miWest (270°)12.7 mph25.3 mphMostly Cloudy
1:35 AM46.6 °F40.6 °F80 %29.84 in10.0 miWest (260°)16.1 mph29.9 mphScattered Clouds
1:55 AM45.1 °F39.7 °F81 %29.87 in10.0 miWest (270°)17.3 mph23.0 mphClear
2:15 AM44.8 °F38.7 °F79 %29.88 in10.0 miWest (270°)12.7 mph26.5 mphScattered Clouds
2:35 AM44.2 °F37.9 °F79 %29.89 in10.0 miWest (270°)12.7 mph19.6 mphMostly Cloudy
2:55 AM43.7 °F36.0 °F74 %29.91 in10.0 miWest (260°)15.0 mph23.0 mphScattered Clouds
3:15 AM42.8 °F35.6 °F76 %29.91 in10.0 miWest (260°)11.5 mph20.7 mphClear
3:35 AM42.3 °F35.2 °F76 %29.92 in10.0 miWest (270°)9.2 mph19.6 mphClear
3:55 AM41.9 °F35.1 °F77 %29.93 in10.0 miWest (260°)9.2 mphScattered Clouds
4:15 AM41.9 °F35.1 °F77 %29.93 in10.0 miWest (280°)16.1 mph24.2 mphMostly Cloudy
4:35 AM41.0 °F32.2 °F71 %29.94 in10.0 miWest (280°)21.9 mph38.0 mphScattered Clouds
4:55 AM39.9 °F30.9 °F70 %29.95 in10.0 miWest (280°)15.0 mph24.2 mphClear
5:15 AM39.2 °F30.2 °F70 %29.96 in10.0 miWest (280°)13.8 mph26.5 mphClear
5:35 AM38.5 °F29.7 °F71 %29.97 in10.0 miWest (270°)9.2 mph21.9 mphClear
5:55 AM37.9 °F29.3 °F71 %29.99 in10.0 miWest (270°)10.4 mph18.4 mphClear
6:15 AM37.4 °F28.8 °F71 %30.00 in10.0 miWest (280°)9.2 mph23.0 mphClear
6:35 AM37.4 °F28.4 °F70 %30.02 in10.0 miWest (270°)10.4 mphClear
7:15 AM36.1 °F29.8 °F78 %30.03 in10.0 miWest (260°)5.8 mphClear
7:35 AM36.0 °F30.6 °F81 %30.04 in10.0 miWest (260°)6.9 mphClear
7:55 AM36.3 °F30.6 °F80 %30.05 in10.0 miWest (260°)6.9 mphClear
8:15 AM36.9 °F30.4 °F77 %30.07 in10.0 miWest (270°)9.2 mphClear
8:35 AM37.6 °F30.7 °F76 %30.07 in10.0 miWest (260°)6.9 mphClear
8:55 AM38.5 °F30.6 °F73 %30.08 in10.0 miWest (280°)10.4 mph16.1 mphClear
9:15 AM39.4 °F30.0 °F69 %30.08 in10.0 miWest (270°)9.2 mph16.1 mphClear
9:35 AM39.9 °F30.9 °F70 %30.08 in10.0 miWNW (290°)11.5 mph21.9 mphClear
9:55 AM40.8 °F31.6 °F70 %30.09 in10.0 miWest (280°)13.8 mph20.7 mphClear
10:15 AM41.4 °F31.6 °F68 %30.10 in10.0 miWest (270°)12.7 mph23.0 mphClear
10:35 AM42.4 °F30.6 °F63 %30.11 in10.0 miWest (280°)12.7 mphClear
10:55 AM43.2 °F30.9 °F62 %30.11 in10.0 miWest (270°)11.5 mph20.7 mphClear
11:15 AM44.6 °F31.5 °F60 %30.10 in10.0 miWest (270°)13.8 mph18.4 mphClear
11:35 AM44.8 °F29.8 °F56 %30.11 in10.0 miWest (270°)11.5 mph18.4 mphClear
11:55 AM45.7 °F30.9 °F56 %30.11 in10.0 miWest (270°)12.7 mph18.4 mphClear
12:15 PM46.8 °F30.4 °F53 %30.11 in10.0 miWSW (250°)13.8 mph21.9 mphClear
12:35 PM47.3 °F29.1 °F49 %30.11 in10.0 miWest (260°)13.8 mph25.3 mphClear
12:55 PM48.2 °F29.5 °F48 %30.11 in10.0 miWest (260°)13.8 mph26.5 mphClear
1:15 PM49.3 °F27.5 °F43 %30.11 in10.0 miWest (260°)17.3 mph27.6 mphClear
1:35 PM49.5 °F28.4 °F44 %30.09 in10.0 miWSW (250°)13.8 mph26.5 mphClear
1:55 PM49.8 °F27.9 °F43 %30.10 in10.0 miWest (270°)16.1 mph23.0 mphClear
2:15 PM50.7 °F27.7 °F41 %30.10 in10.0 miWest (260°)18.4 mph27.6 mphClear
2:35 PM51.1 °F26.8 °F39 %30.10 in10.0 miWest (270°)18.4 mph28.8 mphClear
2:55 PM51.4 °F27.0 °F39 %30.10 in10.0 miWest (260°)13.8 mph24.2 mphClear
3:15 PM51.3 °F26.1 °F38 %30.11 in10.0 miWest (260°)16.1 mph25.3 mphClear
3:35 PM50.4 °F25.3 °F38 %30.11 in10.0 miWNW (300°)18.4 mph35.7 mphClear
3:55 PM50.5 °F26.2 °F39 %30.12 in10.0 miNW (310°)13.8 mph33.4 mphClear
4:15 PM50.0 °F27.1 °F41 %30.12 in10.0 miWest (260°)16.1 mph25.3 mphClear
4:35 PM49.6 °F27.1 °F42 %30.12 in10.0 miWest (280°)12.7 mph23.0 mphClear
4:55 PM49.1 °F26.8 °F42 %30.13 in10.0 miWest (270°)11.5 mphClear
5:15 PM48.6 °F26.8 °F43 %30.13 in10.0 miWest (270°)12.7 mph17.3 mphClear
5:35 PM47.5 °F27.7 °F46 %30.13 in10.0 miWest (260°)5.8 mph18.4 mphClear
5:55 PM46.4 °F28.2 °F49 %30.14 in10.0 miWest (260°)8.1 mphClear
6:15 PM44.6 °F28.9 °F54 %30.15 in10.0 miWSW (250°)6.9 mphClear
6:35 PM43.0 °F29.1 °F58 %30.15 in10.0 miWSW (240°)4.6 mphClear
6:55 PM42.1 °F29.1 °F60 %30.16 in10.0 miWSW (240°)5.8 mphClear
7:15 PM40.3 °F29.1 °F64 %30.16 in10.0 miWSW (240°)4.6 mphClear
7:35 PM39.2 °F29.1 °F67 %30.16 in10.0 miWSW (240°)4.6 mphClear
7:55 PM38.8 °F29.3 °F69 %30.17 in10.0 miWSW (250°)4.6 mphClear
8:15 PM38.1 °F29.5 °F71 %30.18 in10.0 miWSW (240°)4.6 mphClear
8:35 PM37.9 °F29.1 °F71 %30.18 in10.0 miSW (230°)5.8 mphClear
8:55 PM38.1 °F29.3 °F71 %30.19 in10.0 miSW (230°)5.8 mphClear
9:15 PM39.0 °F28.9 °F67 %30.19 in10.0 miSW (220°)4.6 mphClear
9:35 PM38.1 °F28.9 °F70 %30.20 in10.0 miSW (230°)4.6 mphClear
9:55 PM38.1 °F28.6 °F69 %30.20 in10.0 miWSW (240°)3.5 mphClear
10:15 PM37.8 °F28.4 °F69 %30.21 in10.0 miWSW (240°)5.8 mphClear
10:35 PM38.3 °F28.4 °F68 %30.21 in10.0 miSW (230°)4.6 mphClear
10:55 PM37.9 °F28.4 °F69 %30.22 in10.0 miSW (220°)3.5 mphClear
11:15 PM37.4 °F28.2 °F69 %30.22 in10.0 miSSW (200°)3.5 mphClear
11:35 PM35.1 °F28.8 °F78 %30.22 in10.0 miSW (220°)3.5 mphClear
11:55 PM35.8 °F28.2 °F74 %30.22 in10.0 miCalmClear
Hourly data recorded from KHQU, located miles away from Camak, Georgia







STORIES FROM OUR PARTNERS